GFSSE_925_temp_204.txt.gz
Temp
27 25 24 24 24 24 23 23 23 23 23 23 22 22 22 21 21 21 21 21 21 21 21 21 21 21 21 20 20 20 20 19 19 19 19 18 19 19 19 20 20 19 18
26 24 24 24 24 24 23 23 23 23 23 23 22 22 22 22 21 21 21 21 21 21 21 21 21 21 21 20 20 20 19 19 19 19 19 19 18 19 19 19 19 18 18
25 24 23 24 24 24 24 24 23 23 23 23 22 22 22 22 21 21 21 21 20 21 21 21 21 21 21 20 20 19 19 19 20 20 21 22 20 19 19 19 19 18 18
25 24 23 24 24 24 24 24 23 23 23 23 22 22 22 22 21 21 21 21 21 21 21 21 21 21 20 20 20 20 19 19 20 21 23 22 21 18 18 18 18 18 18
25 24 23 24 24 24 24 24 24 23 23 23 22 22 22 22 22 21 20 20 20 21 21 21 21 21 20 20 20 20 20 20 20 22 22 22 21 19 18 18 18 18 19
25 24 22 23 24 24 24 24 24 23 23 23 22 22 22 22 22 21 20 21 20 20 21 21 21 21 20 20 20 20 20 20 22 23 22 21 21 19 18 18 18 18 18
25 24 22 23 23 24 24 24 23 23 23 23 23 23 22 22 22 21 20 20 20 20 21 21 21 21 20 20 20 20 20 21 22 23 22 21 20 19 19 19 18 18 18
25 23 21 23 23 23 23 24 23 23 23 23 23 23 22 22 21 21 20 20 20 21 20 20 20 20 20 20 20 20 20 21 22 23 23 22 20 20 19 19 18 18 18
24 23 22 20 22 23 23 23 23 23 23 23 23 22 22 22 21 20 20 20 20 20 20 20 20 20 20 19 20 20 20 21 22 24 23 22 20 19 19 19 18 18 18
23 22 22 21 20 20 21 22 23 23 23 22 22 22 22 21 21 20 20 20 20 20 20 20 20 20 20 20 20 20 21 21 22 23 23 23 20 19 19 19 19 18 18
23 22 22 21 21 21 21 20 22 22 22 22 21 21 21 20 20 20 20 20 20 20 20 20 20 20 20 20 20 20 21 23 23 23 24 21 20 19 19 19 18 18 18
24 23 22 21 21 21 22 21 20 20 20 20 20 20 21 21 21 21 20 20 20 19 19 19 19 19 20 21 20 20 21 22 22 23 23 21 19 18 18 18 18 18 18
27 24 23 22 21 21 22 22 21 21 21 21 20 20 22 21 21 21 20 19 19 19 19 19 18 19 21 21 21 21 21 21 22 22 22 20 19 18 18 18 18 18 17
28 26 23 23 22 21 23 22 22 22 22 21 21 20 21 21 21 21 22 21 20 20 21 20 20 21 20 20 20 20 20 21 22 22 21 19 18 18 18 18 17 17 16
28 26 24 23 22 21 21 23 22 22 22 22 21 20 21 21 21 21 21 21 20 21 21 21 21 20 19 20 19 19 19 19 20 21 21 19 18 18 18 17 17 16 16
29 26 25 23 22 22 21 22 21 21 22 21 22 21 20 21 21 21 21 21 20 19 20 21 21 20 20 19 18 18 19 19 19 20 21 18 17 17 17 17 16 16 15
29 27 26 24 22 21 21 20 20 21 21 21 21 21 20 21 21 21 21 20 20 19 18 20 20 19 19 18 19 18 18 18 17 18 19 18 17 17 17 17 16 15 15
30 29 27 24 23 21 22 20 20 22 20 20 21 21 19 19 20 20 21 20 19 19 17 19 20 20 19 19 19 18 17 17 16 16 18 19 17 17 16 16 15 15 15
31 29 28 25 23 22 21 21 21 22 19 20 21 21 20 18 19 20 21 20 19 19 17 20 20 20 20 19 19 18 17 16 16 16 17 17 17 17 15 15 15 15 14
29 27 27 26 23 22 21 21 21 21 21 21 21 21 21 18 18 18 20 20 19 19 19 19 20 19 19 20 18 16 15 15 15 15 15 16 15 15 15 14 14 13 13
25 26 25 25 23 22 21 21 21 21 21 21 21 21 20 18 17 17 18 18 18 19 20 18 18 18 17 17 15 13 13 13 14 14 14 14 14 14 14 14 14 12 12
24 24 24 24 23 21 22 21 19 19 19 20 19 18 17 18 17 17 17 17 17 18 18 18 16 16 15 14 14 13 13 12 12 13 13 13 13 13 13 13 12 12 11
22 22 22 23 22 21 21 19 18 17 17 17 17 17 17 17 17 17 17 17 18 18 17 17 17 16 15 14 15 15 12 13 11 10 10 11 11 11 11 12 11 11 11
21 20 21 22 21 21 20 17 18 18 17 17 16 17 17 17 17 17 17 17 17 17 17 17 16 16 16 14 13 13 13 13 13 11 8 9 10 10 10 10 10 10 10
19 18 20 20 20 19 17 17 18 21 20 17 16 16 16 17 17 17 17 17 16 16 16 16 16 16 16 15 14 13 12 11 11 10 10 7 7 8 9 9 10 10 10
17 17 17 17 17 16 17 17 18 18 17 17 16 16 16 16 16 16 17 16 16 16 16 16 16 15 15 15 14 13 13 11 10 11 10 8 9 6 7 8 9 9 9

GFSSE_925_temp_210.txt.gz
Temp
25 26 26 26 25 24 24 24 24 23 23 22 22 22 21 21 21 21 21 21 21 21 20 21 21 21 22 22 22 22 22 21 21 20 20 19 19 19 19 20 19 18 18
26 26 26 25 25 24 23 23 24 23 23 22 22 22 21 21 21 21 21 20 21 20 20 21 21 22 21 21 21 21 21 21 21 21 20 19 19 19 19 20 19 18 19
25 26 26 25 25 24 23 23 23 23 23 22 22 22 21 21 21 20 20 20 20 20 20 21 21 21 21 21 21 22 22 22 21 21 20 19 19 20 20 20 18 18 18
25 26 26 25 25 24 23 23 23 23 23 22 21 22 21 21 21 20 20 20 20 20 20 21 21 20 20 20 21 22 21 21 21 21 21 20 19 19 20 19 19 19 18
26 24 25 25 24 24 23 23 23 23 23 22 22 22 21 21 21 21 20 20 20 20 21 21 21 20 20 21 21 22 21 20 20 21 22 21 19 19 19 18 18 18 18
27 25 25 25 24 24 23 23 23 23 22 22 22 22 21 22 21 21 20 20 20 20 21 21 20 21 21 21 22 22 21 21 21 22 23 21 20 19 18 18 18 18 19
27 26 25 25 24 24 23 23 23 23 22 22 22 22 22 22 22 21 21 20 20 20 21 21 21 20 20 21 21 21 22 22 22 22 23 22 22 20 19 19 19 18 18
27 26 25 25 24 24 23 23 23 23 22 22 22 22 22 22 21 21 21 20 20 21 21 21 21 21 20 20 21 22 22 22 23 23 23 23 22 21 20 19 19 19 18
27 25 24 24 24 24 23 23 23 23 22 22 22 22 22 22 21 21 21 21 21 21 21 21 21 21 20 20 20 21 23 23 23 24 23 23 22 22 20 19 19 19 18
27 25 24 23 23 23 23 23 22 22 22 22 22 22 22 22 21 21 21 20 21 21 21 21 21 20 20 20 20 21 22 23 24 24 23 23 22 22 21 19 19 19 19
26 24 23 22 22 23 23 22 22 22 22 22 22 21 21 21 21 21 20 20 21 21 20 20 20 20 20 20 21 21 22 23 23 23 23 22 22 22 21 19 19 18 18
27 25 23 22 22 21 21 22 22 22 22 22 22 21 21 20 21 20 20 20 20 20 20 20 20 20 20 21 22 22 22 23 23 24 23 22 21 21 21 19 19 18 18
28 26 24 22 22 21 23 22 21 21 21 21 21 21 21 21 21 21 20 20 20 19 20 20 20 20 21 22 21 22 23 22 23 23 23 22 21 21 20 19 19 18 18
29 27 25 23 22 22 23 22 21 20 20 20 20 20 21 22 22 21 21 20 20 19 19 20 20 21 20 21 22 22 22 22 23 22 22 22 21 21 20 19 18 18 17
31 28 26 24 23 22 23 24 22 22 21 21 21 21 21 22 22 22 22 21 20 20 20 20 20 21 21 21 22 21 21 21 21 21 21 21 21 21 20 19 18 18 17
35 29 27 25 24 23 23 25 23 22 22 22 21 21 21 22 23 22 23 21 21 21 21 21 21 21 21 22 21 21 20 21 21 21 21 20 20 20 19 18 18 17 16
35 29 27 26 25 24 23 24 24 24 24 22 23 22 21 22 23 23 23 23 23 22 22 22 22 22 22 22 21 21 20 20 20 21 20 20 19 19 19 19 18 17 17
35 33 27 27 26 24 23 24 24 24 24 23 23 23 22 22 23 23 23 23 23 23 23 22 22 22 22 22 21 21 20 20 20 20 20 19 19 19 19 18 18 17 17
34 34 28 27 26 25 24 23 23 24 24 24 23 24 23 22 23 23 23 23 23 23 22 22 21 22 22 21 21 21 21 20 20 20 19 19 18 18 18 18 17 17 16
35 34 31 29 27 26 24 23 23 24 24 23 24 23 24 22 22 22 22 23 23 23 22 21 21 21 21 22 21 21 21 19 19 19 18 18 18 17 17 17 17 16 16
35 33 32 30 27 26 24 23 23 23 23 23 23 24 23 22 22 22 21 23 22 22 22 21 20 21 21 21 20 18 18 18 17 18 17 17 17 17 16 17 16 16 15
33 31 30 30 28 26 25 24 24 23 23 23 23 23 23 23 22 22 21 21 21 21 21 21 20 20 20 20 18 16 15 16 16 16 16 15 16 15 15 15 16 16 15
31 30 29 29 29 27 26 24 24 24 24 23 23 23 23 23 21 21 21 20 20 20 20 20 20 19 19 18 18 17 14 15 14 13 13 14 14 14 14 15 15 15 15
31 28 27 27 27 27 26 25 24 24 24 23 23 23 22 22 20 20 20 20 20 19 19 20 19 19 18 17 17 17 16 16 14 13 11 12 12 12 13 13 14 14 13
27 25 24 24 25 26 26 25 24 24 22 22 21 21 20 19 19 19 19 19 19 19 19 19 19 18 18 17 17 15 15 14 13 12 13 11 11 11 12 12 12 12 13
23 21 22 24 25 25 25 24 23 21 21 20 19 19 18 19 18 18 18 18 18 18 18 18 18 18 17 17 16 16 16 13 12 12 11 10 10 11 11 11 11 11 11

GFSSE_925_temp_216.txt.gz
Temp
24 25 24 25 25 25 24 24 24 23 23 23 23 22 22 21 21 21 21 21 20 19 20 21 21 21 21 21 20 20 20 20 20 19 19 18 18 19 19 18 18 18 19
26 25 24 25 24 24 24 24 24 23 23 23 23 22 22 22 21 21 21 21 20 20 20 20 21 20 20 20 20 20 20 20 20 19 19 18 18 19 18 18 18 18 18
26 25 24 25 24 24 24 24 24 23 23 22 22 22 22 22 21 21 20 20 20 20 20 20 20 20 20 20 20 20 20 20 20 19 19 19 19 19 18 18 18 18 18
26 25 24 25 24 24 24 24 24 23 23 22 22 22 21 21 21 21 20 20 20 21 21 21 21 21 20 20 20 19 20 19 19 19 20 20 19 19 19 18 18 18 18
25 25 25 24 24 24 24 24 24 23 22 22 22 22 21 21 21 21 20 20 21 21 21 21 21 21 20 20 20 19 19 19 19 19 20 20 20 19 19 19 18 18 18
25 25 25 25 24 24 24 24 23 23 22 22 22 21 21 21 21 21 21 20 21 21 21 21 21 21 20 20 20 20 20 20 20 20 19 20 21 20 19 19 19 19 18
25 25 25 25 24 24 24 23 23 23 22 22 22 22 21 21 21 20 20 21 21 21 21 21 21 21 21 20 20 20 21 21 20 20 20 20 20 20 20 19 19 19 19
26 25 25 24 24 24 24 23 23 23 22 22 22 22 21 21 21 21 21 21 21 21 21 22 22 21 21 21 21 21 21 21 21 20 20 20 20 20 20 20 20 19 19
26 25 24 24 24 24 24 23 23 23 22 22 22 22 22 22 21 21 21 21 21 21 21 21 21 21 21 21 22 22 21 21 21 21 21 21 21 20 20 21 20 19 19
25 25 25 24 23 23 23 23 23 23 22 22 22 22 22 21 21 21 21 21 21 21 21 21 21 21 21 22 22 22 21 22 22 21 21 21 21 21 21 21 20 20 19
24 25 25 25 24 23 23 23 22 22 22 22 22 22 22 21 21 20 21 21 21 21 21 21 21 21 21 22 22 22 23 22 22 22 21 21 21 21 20 20 20 19 19
23 24 25 24 25 24 23 23 22 22 21 22 22 22 22 22 21 21 20 20 21 21 21 20 21 21 21 21 22 22 22 22 22 22 22 21 21 21 20 19 19 19 19
25 23 24 24 24 24 23 23 22 22 21 21 22 22 22 21 21 21 20 20 20 20 20 20 20 21 21 21 22 22 22 21 22 22 22 21 21 21 20 20 20 19 19
23 24 24 24 24 23 23 23 23 22 22 21 22 22 22 21 21 21 20 20 20 20 20 20 20 21 21 21 22 21 21 21 21 21 21 21 21 20 19 20 19 19 19
22 23 24 24 24 23 23 23 22 22 22 22 22 22 22 21 21 21 20 20 20 20 20 21 21 20 21 21 21 21 21 21 20 21 21 21 20 20 19 19 19 18 19
24 23 24 24 23 23 23 23 22 22 22 22 22 22 22 22 21 21 21 20 20 21 21 21 21 21 21 21 21 21 20 21 21 20 20 20 20 19 18 18 18 18 18
25 25 23 24 23 23 22 23 22 22 22 22 22 22 22 22 22 21 21 21 21 21 21 21 21 21 21 21 21 21 21 21 21 20 20 20 19 19 19 18 18 17 17
26 24 24 22 22 22 22 22 22 22 22 22 22 22 22 22 22 21 20 21 21 21 21 21 21 20 20 21 21 21 21 21 21 20 20 20 19 19 19 19 18 18 17
29 25 23 22 22 23 22 21 21 21 21 22 22 22 22 22 21 21 20 21 21 21 21 21 21 21 20 20 21 21 21 21 20 20 20 19 19 19 18 18 18 18 17
31 27 25 23 23 23 22 20 20 20 20 21 22 21 21 22 21 21 21 20 21 21 21 21 21 21 20 21 21 21 20 20 20 20 20 19 19 19 19 18 17 17 17
28 25 24 22 22 21 20 20 20 20 20 20 21 22 22 22 22 21 21 21 21 21 22 21 21 21 20 21 20 19 18 19 19 19 19 19 18 18 18 18 17 17 17
30 26 24 23 22 22 21 21 21 21 20 20 20 21 21 22 22 22 21 21 21 21 21 21 21 20 21 21 19 17 16 17 18 17 18 18 18 18 17 17 17 17 16
28 26 24 24 23 22 21 21 21 21 21 20 20 21 21 22 22 22 22 21 22 22 21 21 21 21 20 20 20 19 14 16 15 17 17 17 17 17 17 17 16 16 15
29 30 25 24 23 22 22 21 21 21 21 21 21 21 22 22 22 22 21 22 21 22 22 22 22 21 20 19 18 19 18 17 14 15 16 16 17 17 17 16 16 16 15
27 27 25 24 23 23 23 22 21 21 21 22 21 22 22 22 22 22 22 22 22 22 22 22 21 20 19 19 19 16 15 15 15 15 15 14 16 17 17 17 16 16 15
24 25 26 25 24 25 24 22 22 21 21 21 21 21 21 22 22 21 22 22 22 22 22 21 21 20 19 19 19 18 17 15 14 13 13 13 13 15 15 15 16 15 15

GFSSE_925_temp_222.txt.gz
Temp
23 23 23 23 23 23 23 23 23 22 22 22 22 21 21 21 21 20 20 20 21 20 19 20 20 21 20 20 20 19 19 18 18 19 18 18 17 18 18 18 18 18 18
24 23 23 23 24 23 23 23 23 23 23 22 22 21 21 21 20 20 21 21 21 20 19 19 20 20 20 20 19 19 19 19 19 18 18 18 18 18 18 18 18 18 18
25 23 23 23 24 24 23 23 23 22 22 22 22 21 21 20 21 21 21 21 21 20 19 20 20 20 20 19 19 19 19 19 19 19 19 19 19 18 18 18 18 18 18
25 23 23 23 24 24 23 23 22 22 22 21 21 21 20 20 21 21 21 21 21 21 20 20 20 20 20 20 19 19 19 19 19 19 19 19 19 19 18 18 18 18 17
24 23 23 23 23 24 23 22 22 22 21 21 21 21 21 21 21 21 22 21 21 21 20 20 20 20 20 20 19 19 19 19 19 19 19 19 19 19 19 18 18 18 18
24 24 23 23 23 24 23 22 22 22 22 22 21 21 21 21 21 21 22 21 21 21 21 20 20 19 19 19 19 19 19 19 20 20 19 19 19 18 18 19 19 18 18
24 23 23 23 23 23 23 22 22 22 22 22 21 21 21 21 21 21 21 21 21 21 21 20 20 20 20 20 19 19 20 20 20 20 20 19 19 18 19 19 19 19 19
24 23 23 23 23 23 23 23 22 22 22 22 22 21 21 22 21 21 21 21 21 21 21 20 20 20 20 20 20 20 20 20 21 20 20 20 19 18 19 19 19 19 19
24 23 22 23 23 23 23 23 23 22 22 22 22 22 21 21 21 21 21 21 21 21 21 20 20 20 20 20 20 21 21 21 21 21 20 20 20 19 19 18 18 18 18
23 22 22 22 22 22 22 22 22 23 22 22 22 22 21 21 21 22 21 21 21 21 21 20 20 20 20 20 20 21 21 21 21 20 20 20 20 19 19 18 18 18 18
21 22 22 22 22 22 22 22 22 22 22 22 22 22 21 21 21 21 21 21 21 21 21 21 21 21 20 20 20 20 21 21 21 21 20 20 20 20 20 19 19 19 18
20 20 22 21 21 22 22 21 21 21 21 22 22 22 21 21 21 21 21 21 21 21 21 21 21 21 21 20 20 21 21 21 21 21 21 20 20 20 19 19 19 18 18
22 20 21 22 21 21 21 21 21 21 21 21 22 21 22 21 21 21 21 20 21 21 21 21 20 20 21 20 20 21 21 21 21 22 21 21 20 20 20 19 19 18 18
22 22 22 22 22 21 21 21 21 20 21 21 21 21 21 21 21 21 20 20 20 21 21 21 21 21 21 21 20 21 21 21 21 21 21 21 20 20 19 19 19 18 18
22 22 23 23 23 22 21 21 21 21 21 21 21 21 21 21 21 21 21 20 20 20 21 21 21 21 21 21 21 21 21 21 21 21 21 21 20 20 19 18 18 18 18
22 23 23 23 23 23 22 22 21 22 22 21 21 21 21 21 22 21 21 21 20 20 21 20 21 21 21 21 21 21 21 20 20 20 21 21 20 20 20 19 18 17 18
24 22 23 23 22 22 22 22 22 22 22 22 21 21 21 21 21 22 21 21 21 21 20 20 20 20 20 20 21 21 21 20 20 20 20 20 20 20 19 19 19 18 18
23 23 23 23 22 22 22 21 21 22 22 22 22 22 21 21 21 21 21 21 21 20 20 20 20 19 19 19 20 20 20 20 20 20 19 20 20 19 19 19 19 18 18
25 24 23 23 23 23 21 20 20 20 21 22 22 22 22 21 21 20 21 21 21 20 20 19 19 20 19 19 19 20 20 19 19 19 19 19 19 19 19 19 18 18 18
26 25 24 22 22 22 20 19 19 19 20 21 22 22 22 21 21 20 20 20 20 20 19 19 19 19 19 19 19 19 19 19 19 19 19 19 19 19 19 18 18 18 18
25 24 25 23 22 21 19 19 18 19 19 19 20 21 21 21 21 21 20 20 20 20 20 20 19 19 18 18 18 18 19 19 19 20 19 19 19 19 19 18 18 18 18
25 26 24 24 22 22 20 20 19 18 18 19 19 19 20 20 20 20 20 20 20 19 19 19 19 18 18 19 18 16 16 18 19 19 19 19 19 18 18 18 18 17 17
24 25 24 24 24 22 21 19 19 20 19 18 18 19 20 20 20 20 20 20 19 19 19 19 19 18 17 18 18 19 14 16 16 17 18 18 18 17 17 17 17 17 17
26 25 24 23 22 22 20 19 19 20 19 19 18 18 18 19 20 20 20 20 19 18 18 19 19 19 18 17 16 17 19 18 16 16 16 16 16 16 17 16 16 16 16
27 27 26 24 22 21 20 19 19 19 20 20 19 19 18 18 19 20 20 20 19 18 18 19 18 18 18 18 17 17 16 16 16 15 16 14 15 15 15 16 16 16 16
25 25 25 23 22 21 20 20 20 19 19 19 20 19 19 18 19 19 19 19 19 18 18 18 18 18 18 18 17 18 18 16 14 14 14 14 14 14 14 15 15 15 15

GFSSE_925_temp_225.txt.gz
Temp
20 20 22 23 22 24 23 22 22 22 22 23 22 22 22 21 21 21 21 21 21 21 20 20 20 19 18 18 19 18 18 18 18 18 18 17 17 18 18 18 18 18 18
20 20 22 22 23 23 22 22 22 22 22 22 22 22 21 21 21 21 21 21 21 21 21 20 20 18 19 19 19 18 19 18 18 18 18 17 17 17 18 18 18 17 18
21 21 22 22 23 23 22 22 22 22 22 22 22 22 22 21 21 22 22 21 21 21 21 21 20 20 20 19 19 19 19 19 18 18 18 19 18 18 18 18 18 18 17
23 22 22 22 23 23 23 22 22 22 22 22 22 22 21 21 21 22 22 22 22 22 21 21 20 20 20 19 19 19 19 19 19 19 19 19 18 17 18 18 18 18 17
22 22 22 23 23 23 23 22 22 22 22 22 22 22 21 21 21 22 22 22 22 21 21 21 20 20 20 20 20 20 20 20 19 19 18 18 19 17 18 18 18 18 17
21 22 23 23 23 23 23 22 22 21 21 21 21 21 21 21 21 22 21 21 21 21 21 21 20 20 20 20 20 20 20 21 20 19 19 18 18 18 19 19 18 18 18
21 22 22 23 23 23 23 22 22 22 21 21 21 21 21 21 21 21 22 21 21 21 21 21 20 20 20 20 20 20 20 20 20 19 19 18 18 19 19 19 19 19 19
23 22 22 22 23 23 23 23 22 21 21 21 21 21 21 21 21 21 21 21 21 21 21 21 21 20 20 20 20 21 21 21 21 20 19 19 20 20 19 19 19 18 18
22 22 22 22 22 22 23 22 22 22 21 21 21 21 21 21 21 21 21 21 21 21 20 20 20 20 20 20 20 21 21 21 20 20 19 19 20 20 19 19 19 19 19
21 22 22 22 22 21 22 22 22 22 21 21 21 21 21 21 21 21 21 21 21 21 21 21 20 20 20 20 20 21 21 21 20 20 19 19 20 20 20 19 19 19 19
19 20 22 21 21 21 22 22 22 21 21 21 21 21 21 19 20 20 20 20 21 21 21 21 20 21 20 20 21 21 21 21 21 20 20 20 21 20 20 19 19 19 18
19 19 20 21 21 21 21 21 21 21 20 20 20 20 19 20 19 19 20 20 20 21 20 20 20 20 20 19 20 21 21 21 21 20 20 21 20 20 20 19 19 19 18
20 19 19 21 21 21 19 20 19 19 20 20 21 20 20 20 20 20 18 19 19 20 20 20 19 19 19 20 20 20 21 21 20 20 21 21 20 20 19 19 19 19 18
20 20 19 19 20 21 19 19 20 19 20 20 20 21 21 20 20 19 18 18 19 18 18 19 18 19 20 20 20 20 20 20 20 20 21 21 21 20 19 19 19 19 18
21 19 19 19 19 20 19 19 19 20 21 21 21 21 21 20 20 19 19 20 18 20 20 19 20 20 20 20 20 20 20 20 20 20 20 21 21 20 20 19 19 19 18
22 20 20 20 19 19 19 19 19 20 21 21 21 21 21 21 20 19 20 20 19 20 20 21 21 20 20 19 20 19 20 20 19 20 20 20 20 20 20 19 18 18 18
23 21 21 21 19 19 19 19 19 19 20 20 21 21 21 21 21 20 19 19 20 20 21 20 20 20 20 20 20 19 20 20 20 19 20 20 20 20 19 19 18 18 18
23 22 21 21 21 21 19 18 18 18 19 20 20 21 21 21 21 21 18 18 19 20 19 19 19 19 19 19 19 20 19 20 20 19 19 19 20 19 19 19 19 18 18
24 22 22 22 23 21 20 19 19 18 19 19 19 19 21 21 21 21 19 19 20 18 18 18 18 19 18 18 19 20 20 20 19 19 19 19 19 19 19 19 19 18 18
24 23 22 23 22 21 19 18 18 18 18 19 19 20 20 21 21 20 19 19 20 18 17 17 17 18 18 18 18 18 18 19 18 18 18 19 19 19 19 19 19 19 18
25 23 22 21 23 20 19 18 18 18 18 18 18 19 20 20 20 20 18 18 19 18 18 17 17 17 17 16 16 18 17 19 18 18 18 18 19 19 19 19 19 18 18
25 24 23 22 21 21 20 20 20 19 19 19 18 18 19 19 19 19 19 18 18 18 17 17 17 17 17 16 18 18 20 19 19 18 19 19 19 19 19 19 18 18 18
22 23 24 23 22 22 21 19 19 19 18 17 18 18 19 19 19 19 20 19 18 18 18 17 17 17 18 16 17 19 18 19 20 17 18 17 18 18 18 17 17 17 17
24 23 23 24 22 20 20 19 20 20 20 20 19 19 18 17 17 18 19 19 18 17 18 18 17 17 17 18 15 16 18 18 19 20 17 16 15 15 15 16 16 15 15
23 23 24 22 22 21 20 20 19 20 21 21 19 18 17 17 17 17 18 18 18 18 18 18 17 16 17 18 17 18 16 16 16 17 19 15 16 16 16 16 15 15 15
24 23 24 23 22 21 20 20 19 20 21 20 19 18 18 17 17 17 17 18 18 17 17 17 17 16 16 16 17 17 18 18 16 15 15 17 16 14 15 14 15 14 15

GFSSE_925_temp_228.txt.gz
Temp
26 25 23 23 23 22 22 22 22 22 22 22 21 21 20 21 21 21 21 21 20 19 19 19 19 19 18 19 19 19 19 19 19 18 18 18 18 18 19 19 20 19 18
26 24 23 23 23 22 22 22 22 22 22 22 21 21 21 21 21 21 21 21 21 20 20 20 20 20 20 19 19 19 18 18 18 18 18 18 18 18 19 19 19 18 19
25 23 22 23 23 22 22 22 22 22 22 22 22 21 21 21 21 21 21 21 21 21 20 19 19 18 19 19 19 19 19 18 19 19 20 21 19 18 18 18 18 18 18
24 23 22 23 23 22 23 22 22 22 22 22 22 21 21 21 21 21 21 21 21 21 21 19 19 20 19 19 19 19 19 19 20 21 22 22 20 17 18 18 18 18 18
24 23 22 22 23 22 23 22 22 22 22 22 22 21 21 21 21 21 21 21 21 21 21 20 20 20 20 20 20 20 20 20 20 22 22 21 21 18 18 18 18 18 18
24 24 22 23 23 23 22 22 22 22 22 21 22 21 21 21 21 22 22 21 21 21 21 21 20 20 20 20 20 20 20 21 22 23 22 21 21 19 18 18 18 18 18
24 24 22 22 22 23 23 23 22 22 22 21 22 21 21 21 21 21 22 21 21 21 21 21 20 20 20 20 20 20 21 21 23 23 22 21 20 19 19 19 19 19 19
24 23 21 22 22 22 22 22 22 22 22 21 21 21 21 21 21 21 22 21 21 21 21 21 21 20 20 20 21 21 21 21 23 23 23 22 20 19 19 19 19 19 19
23 22 21 20 21 22 22 22 22 22 22 21 21 21 21 21 21 21 22 21 21 21 21 21 21 21 21 21 21 21 21 21 23 23 23 22 21 20 20 19 19 18 18
22 22 21 21 20 20 21 22 22 22 21 21 21 20 21 21 21 21 21 21 21 21 21 21 21 21 21 21 21 21 21 21 23 23 23 22 21 20 19 19 19 19 18
22 22 21 21 21 20 20 20 21 22 21 21 20 20 20 20 19 20 19 21 21 21 21 20 20 20 20 21 21 21 21 23 23 23 23 22 21 20 20 20 19 19 19
24 22 22 21 21 21 22 20 20 20 20 19 20 19 20 21 21 21 20 20 20 20 20 20 20 20 20 21 21 21 22 23 22 23 23 22 21 20 20 20 19 19 19
25 24 22 21 21 21 22 21 21 21 21 21 20 20 21 21 21 21 21 19 19 20 19 19 19 19 21 22 23 22 23 22 23 23 23 22 21 20 20 20 19 19 19
26 25 23 22 21 21 23 22 22 22 22 21 21 20 21 21 21 21 22 21 21 20 21 21 21 21 21 21 21 21 21 22 23 23 23 22 21 20 20 20 19 19 19
27 25 24 23 22 21 22 23 23 22 22 22 21 20 21 21 21 22 22 22 22 22 21 22 22 21 21 21 21 20 21 21 21 22 23 22 21 20 20 19 19 19 19
27 26 24 23 22 22 22 22 22 22 22 22 22 22 20 21 22 22 21 22 22 22 22 22 22 21 21 21 21 20 20 21 21 22 22 22 21 20 20 19 19 18 18
28 27 24 23 22 22 21 21 22 22 22 22 22 21 20 21 21 21 22 21 22 22 21 21 21 21 21 21 20 21 20 20 21 21 21 22 22 20 20 19 19 18 18
29 27 25 24 23 21 22 22 22 22 21 22 22 22 20 20 21 20 21 21 22 21 21 21 21 21 21 21 21 21 21 21 21 21 21 22 22 22 20 20 19 19 18
30 28 26 24 23 22 22 22 22 22 21 22 22 22 21 20 20 20 22 22 21 21 21 21 21 21 22 22 21 21 21 21 21 21 21 22 21 21 21 21 20 19 19
30 29 27 24 23 22 22 22 22 22 22 22 22 22 22 20 20 20 21 21 21 21 21 21 21 21 21 22 22 22 21 21 21 21 21 21 21 21 20 20 20 19 19
30 29 27 26 24 23 23 23 23 23 23 23 23 22 22 21 20 20 21 21 20 21 22 21 21 20 21 21 21 21 21 21 20 20 21 21 22 21 20 20 20 20 20
30 30 28 27 25 23 24 24 24 24 24 23 23 23 21 21 20 20 20 21 20 21 21 21 20 21 21 21 21 21 23 23 21 19 20 21 21 21 21 20 19 19 19
29 29 29 28 26 24 24 24 24 24 23 23 23 22 21 21 20 20 20 20 20 20 21 20 20 20 22 21 20 22 23 22 24 23 19 19 20 20 20 19 18 18 17
30 28 28 29 28 25 24 25 24 24 24 24 23 23 22 21 20 20 20 20 20 20 20 21 20 20 20 22 21 19 21 23 23 23 20 19 18 18 18 17 16 16 16
32 29 25 27 28 27 24 24 24 24 25 26 24 24 22 22 20 20 19 19 19 19 20 20 20 19 20 20 22 21 20 20 20 21 22 19 15 16 16 15 15 16 15
32 29 25 25 26 27 25 23 24 24 24 26 25 24 23 22 21 19 19 19 19 19 20 20 19 20 19 20 20 21 21 21 20 20 19 20 20 17 16 16 15 15 15

GFSSE_925_temp_231.txt.gz
Temp
30 24 25 24 23 21 21 22 22 22 21 21 21 21 21 21 21 21 21 20 20 20 19 20 20 20 20 20 20 20 20 20 19 19 19 19 19 19 19 20 20 19 18
29 24 24 24 23 21 21 22 22 22 21 21 21 21 21 20 20 21 21 20 19 19 19 20 20 19 20 19 19 19 19 19 20 20 19 19 19 19 20 20 19 18 19
27 24 23 24 23 22 22 22 22 22 22 21 21 21 20 20 20 20 21 20 20 20 19 19 18 18 19 19 19 19 20 21 21 21 22 21 19 19 20 20 19 19 19
27 24 22 23 23 22 21 22 22 22 21 21 21 21 21 20 20 20 20 21 20 19 18 18 18 20 20 20 20 20 21 21 21 22 23 22 20 19 19 19 18 18 19
27 25 22 23 23 22 21 22 22 22 21 21 21 21 21 20 20 20 20 20 20 19 19 19 20 20 20 20 20 20 21 21 22 22 24 22 21 19 19 19 19 18 19
27 26 24 23 23 22 22 22 22 22 21 21 21 21 21 21 21 20 20 20 19 20 21 21 20 20 20 20 20 21 21 22 22 25 24 22 22 19 19 18 19 18 19
27 26 23 23 23 22 22 22 22 22 22 21 21 21 21 21 20 20 21 20 20 20 21 20 20 20 20 20 21 21 21 22 22 24 23 23 19 20 19 18 19 19 19
27 25 22 23 23 22 22 22 22 22 22 21 21 21 21 21 20 20 20 21 21 21 20 20 20 20 20 20 20 21 22 22 23 25 24 23 21 20 19 19 19 18 18
26 24 22 21 22 22 22 22 22 22 22 21 21 21 21 21 20 20 20 20 21 21 21 20 20 20 20 20 20 21 22 22 23 25 25 22 21 20 20 19 19 18 18
25 24 22 21 20 20 21 22 22 22 21 21 21 21 21 20 21 20 20 20 20 21 20 20 20 20 20 20 21 21 22 23 24 25 25 23 22 21 20 19 19 19 19
25 24 22 22 21 21 21 21 21 21 21 21 21 20 20 20 20 20 20 21 20 20 20 20 20 20 20 21 21 22 22 23 25 26 26 23 22 21 20 20 19 19 19
26 24 23 23 22 22 23 21 20 20 19 19 20 19 20 22 21 22 21 20 21 20 20 20 20 20 21 22 22 22 22 25 24 25 25 23 22 22 21 20 20 19 19
27 25 24 23 23 23 24 22 22 22 21 21 21 21 21 23 22 22 22 20 19 20 19 20 20 19 21 23 25 24 24 24 25 25 24 23 22 22 21 20 20 19 19
28 27 25 24 23 23 25 24 23 23 23 22 22 21 22 23 23 23 23 22 21 21 21 21 21 21 22 22 23 24 23 23 25 25 25 24 23 22 21 21 20 20 19
30 28 26 25 24 23 24 25 24 24 23 24 23 22 22 23 23 23 24 23 22 23 22 23 22 22 22 22 22 22 22 22 23 24 24 23 22 22 21 20 20 20 19
31 29 27 26 24 24 24 25 25 24 24 24 24 23 22 23 23 23 23 24 24 23 23 23 23 23 23 23 22 22 22 22 23 23 24 23 23 22 21 21 20 20 19
31 30 27 26 25 24 23 24 24 25 25 24 24 23 22 22 23 23 24 24 24 24 23 23 23 23 23 23 23 23 22 22 22 22 23 23 22 22 22 21 20 20 19
32 30 28 26 25 24 24 24 24 25 24 24 24 24 23 22 23 22 23 23 24 24 24 23 23 23 23 23 23 23 23 22 22 22 22 22 23 23 22 21 21 20 19
33 31 28 26 26 24 24 24 24 25 24 24 24 24 23 22 22 23 23 24 23 23 24 23 23 23 24 23 23 23 23 23 23 23 23 22 22 22 23 22 22 21 20
33 32 30 26 26 25 24 24 24 25 24 24 24 24 24 22 22 22 23 23 23 23 23 23 23 23 23 24 24 25 24 23 23 23 23 22 22 23 22 22 21 20 20
34 32 31 28 26 25 24 25 25 25 25 25 25 25 24 23 22 21 22 23 23 23 23 23 23 23 23 23 23 24 24 23 22 22 23 22 22 23 22 22 21 21 21
33 33 31 30 26 25 25 25 26 26 26 25 25 25 24 24 23 21 21 22 22 22 23 23 23 23 22 23 23 23 24 24 23 22 21 21 21 22 22 22 21 21 21
33 33 32 31 28 26 26 26 26 26 26 26 26 25 25 24 23 22 21 22 23 22 22 22 22 22 23 23 23 23 24 24 25 25 22 21 21 21 21 22 22 21 20
33 32 32 32 30 28 26 27 27 27 27 27 26 26 25 24 23 22 22 21 22 22 22 22 21 21 21 23 23 22 22 23 24 25 24 22 21 20 20 20 20 20 19
34 33 31 30 31 30 28 26 27 27 27 27 27 26 25 25 23 22 22 21 21 21 21 22 22 21 21 21 23 24 22 21 21 22 23 23 19 18 18 19 19 18 17
35 34 32 30 29 30 30 27 26 27 26 27 28 27 26 25 24 22 22 21 21 21 21 21 21 22 21 21 21 22 23 23 22 22 23 23 23 21 18 17 16 17 17

GFSSE_925_temp_237.txt.gz
Temp
22 24 25 25 24 22 22 23 22 23 22 22 22 22 22 22 22 22 21 21 21 21 20 20 20 20 21 21 21 20 20 21 20 19 18 18 18 18 19 19 18 18 18
25 24 25 24 24 23 22 22 22 22 22 22 22 22 22 21 21 21 20 20 20 21 21 21 21 21 21 21 21 21 21 21 20 20 19 19 19 19 19 19 18 18 18
25 24 24 24 24 23 22 22 22 22 22 21 21 21 21 21 21 20 20 20 19 20 20 21 21 21 21 21 21 21 21 21 20 20 20 19 19 19 20 19 19 19 18
25 24 24 24 23 23 22 22 21 21 22 21 21 21 21 21 21 20 20 20 19 19 19 20 21 21 21 21 21 21 20 20 20 19 20 20 19 19 18 19 18 18 18
25 25 25 23 23 23 22 21 21 21 21 21 21 21 20 20 20 20 21 21 20 19 19 20 20 21 21 21 21 21 20 20 20 19 20 21 20 19 18 18 18 18 19
25 25 24 24 23 22 22 21 22 21 21 21 21 20 20 20 20 20 20 20 20 20 21 21 21 21 22 21 21 20 20 20 21 20 19 21 21 19 19 18 18 18 19
24 25 24 24 23 22 22 22 21 21 21 21 21 20 20 20 20 20 20 19 18 19 20 21 21 21 22 22 21 21 21 21 21 20 21 22 22 21 20 19 19 19 19
25 25 24 24 23 22 22 22 22 21 21 21 21 20 20 20 20 20 20 20 20 20 21 21 21 21 22 22 22 22 22 22 22 21 21 22 22 21 20 20 19 19 19
25 24 24 23 22 22 22 22 22 21 21 21 21 21 21 20 20 20 19 19 20 20 20 21 21 21 22 22 22 22 22 23 23 22 22 23 23 22 21 21 20 20 19
25 24 24 23 22 21 21 21 21 22 21 21 21 21 21 21 20 20 19 19 20 20 20 20 20 21 21 22 22 23 23 23 23 21 22 23 23 22 22 21 20 20 20
24 24 23 23 22 21 21 21 21 21 21 21 21 21 21 21 20 20 20 20 20 20 20 20 20 20 21 22 22 23 23 24 23 23 22 23 23 22 22 21 21 20 20
22 23 23 23 22 21 21 20 20 21 21 21 21 21 21 21 21 21 20 20 20 20 20 20 20 20 21 21 22 23 24 24 24 23 23 23 23 23 22 22 21 21 20
22 22 22 23 22 22 21 21 20 21 21 21 21 21 21 21 21 21 20 20 20 20 20 20 20 20 21 21 21 22 23 24 23 22 23 23 23 23 23 22 22 21 21
22 22 22 22 22 22 22 21 21 21 21 21 21 21 21 20 20 20 20 20 20 20 20 20 20 21 21 21 21 21 22 23 23 23 23 22 22 22 22 22 22 21 21
22 22 22 22 22 22 21 22 22 21 21 21 21 21 21 21 21 21 21 21 21 21 21 20 20 21 21 22 22 21 22 22 23 23 22 22 22 22 22 23 22 22 21
23 22 22 22 22 22 22 22 22 22 22 21 21 21 21 21 21 21 21 21 21 21 22 21 21 21 21 22 22 22 22 22 22 23 22 22 22 22 22 22 22 22 22
25 23 22 22 22 22 22 22 22 22 22 21 22 22 21 22 21 22 22 22 22 22 22 22 21 21 21 21 22 22 22 22 22 22 22 22 22 22 22 22 22 22 22
26 24 23 22 22 22 22 22 23 23 22 22 22 22 22 22 22 22 22 22 22 22 22 22 22 21 22 22 22 22 22 22 22 22 22 22 22 22 22 22 22 22 22
27 25 24 23 22 22 23 22 23 23 23 23 23 22 22 22 22 22 22 23 23 23 23 22 22 22 22 22 22 22 22 22 22 22 22 22 22 22 22 22 22 22 21
28 26 25 24 23 22 23 23 23 23 23 24 23 23 23 23 23 22 22 23 23 23 23 23 23 23 23 23 23 23 23 23 22 22 22 22 22 22 22 22 22 22 22
28 26 25 24 24 22 22 22 22 23 23 24 23 24 24 23 23 23 23 23 23 23 23 23 23 23 23 23 22 22 22 23 23 23 23 23 22 23 23 22 22 22 22
29 26 25 25 24 23 22 22 22 23 23 23 24 24 23 24 23 23 23 23 22 23 23 23 23 23 23 23 22 20 17 21 23 23 23 23 23 23 23 22 22 22 22
28 27 26 25 25 24 23 23 22 23 23 23 23 24 24 23 24 23 23 23 22 22 22 23 23 23 22 22 22 22 16 17 19 23 23 23 23 23 23 22 22 22 21
28 28 26 25 25 24 23 23 22 22 23 23 23 23 23 24 24 24 23 22 22 22 22 22 22 22 22 21 21 22 23 22 17 18 21 23 23 22 22 22 22 21 21
29 28 27 26 25 25 23 23 23 23 23 23 23 23 23 23 24 24 23 22 21 22 22 22 22 22 22 21 21 21 20 20 21 18 18 19 21 23 22 22 21 21 20
31 28 27 26 25 25 24 24 23 23 23 23 23 23 23 23 23 23 24 23 22 21 21 21 21 22 21 21 21 21 21 20 20 19 17 18 19 21 21 21 21 20 20